RH
66 82 85 88 95 95 97 100 99 98 93 88 88 84 81 79 76 70 58 41 34 31 30 50 64 52 49 60 64 65 73 84 88 85 84 84 83 85 85 82 80 84 88 84 78 76 71 66 70 79 80 79 79 76 75 76 75 75 74 74 76 74 68 64 57 49 42 35 27 25 28 28 35 46 52 63 76 76 69 67 65 65 68 71 73
79 84 86 92 99 97 99 100 98 98 93 90 90 87 84 80 72 67 61 50 46 44 33 33 37 34 47 61 57 61 77 87 88 87 85 82 83 84 83 81 81 86 90 83 75 72 67 62 70 80 79 75 74 73 78 82 80 78 75 76 77 75 71 63 57 52 45 33 19 19 25 29 38 47 54 65 67 60 58 61 62 61 63 66 67
84 81 87 92 99 100 99 99 99 99 95 92 91 88 86 79 68 63 65 61 58 56 48 44 42 35 41 49 50 62 78 86 89 89 86 84 84 84 84 84 81 83 86 80 73 68 63 64 74 81 74 69 70 74 81 84 82 78 74 77 80 79 77 69 63 59 51 38 27 29 31 37 50 49 48 54 50 50 55 56 57 55 52 52 49
74 73 84 90 97 97 92 95 98 99 99 96 92 88 87 79 66 64 68 64 60 62 59 54 52 47 44 46 54 70 82 87 91 90 86 86 87 85 84 81 77 80 84 78 69 66 67 72 78 75 68 67 71 76 82 83 83 80 77 80 81 84 87 80 69 61 56 46 41 45 36 42 65 56 41 48 52 55 54 48 49 48 42 40 40
68 78 87 80 83 86 87 94 99 100 100 98 93 88 87 82 70 66 70 67 63 65 64 61 60 56 53 58 70 82 89 92 90 88 88 88 88 85 79 76 76 81 83 74 68 71 73 72 72 71 69 71 75 81 86 87 87 86 87 88 87 89 92 87 76 65 60 49 44 53 50 57 73 59 49 63 61 51 48 46 43 41 37 34 35
85 96 94 78 80 89 93 98 100 99 100 98 96 91 87 85 78 73 75 74 72 70 66 65 65 63 62 69 79 86 92 93 87 84 86 87 86 80 75 77 80 84 83 76 76 79 73 67 70 73 74 77 83 89 93 94 94 93 94 95 95 96 94 91 85 72 61 49 41 48 51 58 67 63 66 75 64 50 52 51 40 37 38 37 42
93 99 97 81 72 79 88 96 99 99 100 99 98 97 92 90 88 86 85 80 78 78 72 68 70 70 70 74 79 84 85 84 84 85 87 86 82 76 76 82 85 86 85 82 83 84 77 75 79 80 81 85 88 92 94 95 95 95 98 98 98 99 96 91 84 74 70 61 49 49 51 51 54 60 67 71 70 63 56 48 38 35 36 37 46
90 95 97 80 62 68 82 92 98 99 99 99 100 100 94 89 88 90 93 89 83 83 80 76 76 77 80 82 83 85 83 80 84 88 89 84 77 74 81 88 88 87 87 85 85 86 86 88 89 87 87 88 89 92 95 96 97 96 95 92 93 94 89 81 70 64 70 67 55 52 52 47 45 46 48 51 58 62 59 46 33 28 26 28 33
89 92 97 85 74 82 92 95 99 99 99 100 100 97 87 83 83 79 87 94 88 85 84 83 84 85 90 93 86 83 87 87 86 88 86 82 78 80 88 90 87 86 85 84 87 92 94 95 95 92 91 91 92 95 96 96 95 91 87 85 86 81 69 61 54 48 51 51 45 44 43 41 40 38 36 35 37 54 65 55 41 30 21 24 27
89 90 96 94 91 96 96 96 98 99 100 99 100 97 85 83 85 77 82 94 93 89 90 92 94 93 93 95 87 81 87 90 89 88 86 84 82 86 93 91 84 82 81 84 92 97 97 97 98 96 94 93 93 94 93 90 86 81 79 79 74 63 51 44 41 40 38 37 38 38 37 35 36 34 33 34 43 61 69 65 63 49 34 41 42
89 89 94 98 100 99 95 96 99 99 100 99 99 101 93 89 88 82 86 96 97 94 96 98 96 89 86 86 85 86 88 89 89 90 90 89 83 87 96 91 82 80 82 90 98 99 99 98 96 93 91 89 89 87 81 76 74 72 71 67 56 45 41 37 36 38 37 37 37 36 35 33 33 34 34 41 56 69 67 64 66 48 41 63 59
90 89 91 94 97 99 98 99 100 99 100 100 99 100 99 97 92 88 93 99 99 98 99 100 93 84 81 81 87 94 90 86 89 91 92 86 78 86 96 91 85 86 90 96 100 99 100 97 91 89 88 86 82 72 61 58 61 62 57 49 41 37 37 38 40 40 38 38 37 35 33 32 33 33 36 43 52 59 57 52 49 35 33 58 66
89 89 91 91 93 98 100 99 100 100 99 100 100 95 92 97 97 95 97 98 99 99 98 99 93 87 86 84 89 96 91 86 88 90 89 80 73 83 94 94 91 92 94 99 100 98 98 94 91 90 87 82 70 53 45 47 49 48 43 38 36 38 39 40 41 39 38 38 36 34 33 32 35 36 39 44 46 46 43 37 36 35 31 38 54
89 91 94 92 91 97 100 99 99 100 99 99 100 93 87 93 98 99 99 97 98 99 99 97 87 84 89 90 92 96 92 88 87 86 87 85 82 87 95 98 97 96 97 99 99 99 98 95 93 89 84 74 58 42 38 39 40 39 38 37 38 39 40 41 39 37 38 36 34 34 34 35 37 38 40 42 40 38 38 41 40 32 25 27 40
91 92 94 93 93 97 100 100 99 99 100 99 99 97 94 95 98 99 96 94 96 99 101 97 86 83 89 93 96 97 93 90 88 86 88 91 91 90 94 99 100 99 99 99 99 100 98 96 92 86 80 68 49 38 37 37 38 39 38 39 39 39 40 39 37 36 35 34 34 34 37 38 38 38 38 36 33 32 36 46 45 29 18 19 29
91 89 92 92 92 96 98 99 100 100 100 99 99 99 99 98 99 98 91 88 96 99 99 98 90 85 86 89 95 96 93 90 84 80 85 91 92 93 96 99 100 99 99 100 99 99 98 94 91 86 77 63 45 38 39 38 40 41 40 41 41 40 41 37 35 36 35 35 36 37 38 37 35 33 31 29 28 30 34 36 36 32 33 31 22
90 88 91 92 92 96 98 98 100 100 99 100 100 99 99 99 98 97 92 91 98 99 99 99 95 89 87 88 95 96 91 87 82 80 84 87 88 93 99 99 99 99 98 99 99 99 99 96 94 88 73 57 44 40 41 41 42 43 41 42 40 39 39 37 37 38 37 37 36 34 33 29 27 25 24 25 25 27 30 26 24 28 41 57 51
91 90 92 91 91 94 97 99 100 99 100 99 99 100 100 98 97 95 92 93 98 100 99 98 95 92 91 92 97 96 89 86 88 87 85 84 86 92 97 97 99 98 96 98 98 97 98 97 96 88 67 50 43 41 42 43 44 43 41 39 38 39 41 38 38 39 36 33 30 25 23 19 20 21 21 24 24 22 24 22 24 27 30 51 67
90 92 93 91 92 96 98 100 100 99 100 99 99 100 99 98 98 96 89 90 98 101 99 96 89 86 90 95 96 93 87 85 90 91 88 88 90 92 95 97 98 98 98 98 96 96 96 96 96 85 59 44 43 42 43 43 42 40 38 36 36 41 44 40 38 36 28 23 20 16 16 15 17 20 20 21 21 20 22 23 27 35 36 41 58
90 91 92 91 94 99 99 100 100 99 100 99 99 100 99 99 99 96 91 93 99 99 99 98 88 82 87 90 89 87 83 78 83 92 93 92 94 94 95 99 98 98 98 95 93 95 94 95 96 80 53 43 44 43 42 42 40 37 34 34 39 46 45 39 33 26 17 15 15 13 13 16 18 18 17 17 19 20 26 34 38 41 45 42 46
90 91 90 91 96 99 99 99 100 100 99 100 100 99 100 100 95 89 89 94 99 100 100 97 87 83 85 83 84 90 87 77 73 84 94 96 97 95 95 99 100 96 95 93 93 94 93 95 94 72 49 45 46 43 42 41 37 34 33 37 45 48 42 32 23 16 12 12 12 12 13 17 17 15 16 18 22 27 31 40 45 44 45 43 38
93 92 89 92 98 99 100 100 99 100 99 100 100 99 100 97 91 90 93 97 100 98 97 91 80 79 86 88 92 97 95 87 81 85 96 99 98 97 97 98 96 92 92 93 93 93 93 94 86 63 49 48 47 43 42 39 35 34 38 44 49 45 33 22 15 11 12 12 10 12 15 18 17 15 19 22 23 31 36 40 42 41 41 38 34
95 92 91 97 100 99 100 99 99 100 99 100 99 100 99 94 92 97 99 99 99 98 96 89 79 82 94 98 99 100 98 97 95 94 98 99 99 100 98 93 92 92 94 93 93 95 94 88 73 56 50 50 46 44 40 36 34 37 43 47 45 36 23 14 11 10 11 12 10 13 18 19 18 17 19 23 26 30 36 39 37 35 33 33 40
93 91 96 100 99 99 100 99 100 99 99 100 100 99 98 95 96 100 99 99 100 99 97 92 88 92 99 98 96 99 100 98 99 99 99 100 100 97 91 90 93 95 95 95 95 94 88 75 60 53 53 50 46 42 38 34 36 41 46 46 36 25 15 11 11 10 11 12 12 15 20 19 18 19 20 24 30 32 34 34 29 27 28 33 49
91 92 98 101 99 100 100 99 100 99 99 100 99 99 98 97 99 100 99 100 100 97 95 96 96 97 96 91 89 95 100 99 99 100 99 100 99 95 91 92 95 96 96 96 93 86 74 62 56 55 54 49 44 40 37 36 40 44 45 38 25 16 13 11 10 10 10 12 14 16 21 21 19 20 22 26 31 31 28 25 21 22 27 36 50
91 93 98 100 99 100 99 99 100 99 99 100 99 99 99 99 100 99 99 101 97 94 95 99 100 93 84 81 84 93 100 100 99 100 100 100 99 97 96 95 95 96 96 93 84 72 62 57 58 57 51 46 41 38 39 42 45 44 37 26 18 14 12 11 10 10 10 11 15 17 19 21 21 21 22 26 29 25 21 18 18 20 26 35 45
93 96 99 100 99 99 100 99 100 100 99 100 100 99 100 100 99 99 100 99 95 94 97 100 100 89 75 74 84 95 100 99 99 100 99 99 100 99 97 95 95 97 94 85 72 62 60 60 58 54 49 45 41 38 41 45 44 38 27 18 15 14 12 11 9 10 11 11 14 17 18 20 20 21 22 23 23 20 17 17 17 19 24 31 39
96 99 100 99 99 99 100 99 99 100 99 99 100 99 100 99 99 100 99 95 96 97 96 99 100 91 80 77 83 93 100 99 99 100 99 100 99 96 95 95 95 95 86 73 62 58 61 61 56 53 50 47 44 41 43 43 37 28 19 14 15 13 11 10 9 10 12 14 15 16 17 19 18 18 19 19 19 17 15 15 14 16 22 27 36
98 100 99 99 100 99 100 100 99 100 99 100 100 99 99 99 100 99 91 89 97 100 96 97 99 94 88 85 88 94 100 100 99 100 99 98 96 93 95 97 95 88 74 63 61 62 61 59 56 55 52 48 45 43 41 37 28 19 16 13 13 13 10 9 10 12 13 14 14 15 16 18 18 17 18 18 18 16 13 13 12 13 18 26 37
99 100 99 99 100 99 99 100 99 100 100 99 99 100 100 99 98 93 87 91 99 99 97 99 100 94 91 94 97 98 99 100 99 99 97 96 97 96 98 97 88 76 66 63 67 66 62 60 58 54 51 47 44 40 36 30 21 16 14 12 12 11 10 10 11 12 13 12 12 14 15 16 16 17 18 18 18 15 12 12 10 11 16 24 36
99 100 100 99 100 99 99 100 100 100 100 99 100 99 99 99 95 89 91 98 99 97 98 100 100 95 92 97 100 99 99 100 99 99 98 97 99 99 96 89 78 68 65 68 69 67 65 63 58 53 49 45 40 36 30 24 18 15 13 11 11 10 10 11 10 10 10 10 10 11 12 12 13 15 16 15 15 13 10 10 11 13 20 26 35
99 99 100 99 100 99 100 99 99 100 99 99 100 99 99 101 96 91 93 95 96 99 99 98 99 97 94 97 100 99 99 99 99 100 100 99 99 95 88 80 71 66 67 69 68 66 65 63 58 52 46 40 36 32 27 21 17 15 12 10 9 9 9 10 10 9 9 9 9 9 9 9 10 11 12 12 12 10 9 9 10 15 26 34 41
100 99 99 100 100 99 100 100 99 100 100 99 100 99 99 100 98 95 93 89 90 97 97 94 98 99 97 98 100 99 98 99 100 98 94 94 92 86 80 74 67 67 68 68 68 65 64 63 57 49 42 36 33 29 24 20 16 13 11 9 8 8 8 9 9 9 9 8 9 8 8 8 9 9 9 9 9 9 8 9 10 15 26 37 45
100 100 99 100 100 99 99 100 99 99 99 99 100 100 99 100 99 96 93 90 92 97 98 97 99 99 99 100 99 98 99 100 97 89 81 82 83 78 74 70 66 67 68 68 68 66 65 63 54 44 37 32 30 27 23 18 14 11 9 8 8 8 7 8 9 9 8 8 8 8 8 8 8 8 8 8 8 8 8 8 11 16 24 33 42
99 100 99 99 100 100 100 100 99 99 100 99 100 100 99 100 98 93 92 95 97 98 98 99 98 97 99 97 92 94 100 98 90 82 77 77 77 74 72 68 66 68 68 68 69 68 66 60 49 39 33 28 27 25 20 15 12 10 9 9 9 8 8 8 8 8 8 8 7 7 8 8 7 7 7 7 7 8 8 9 13 20 27 33 39
95 99 100 100 99 99 99 100 100 99 100 99 100 100 99 100 99 96 93 94 96 99 100 99 97 95 95 92 88 92 98 93 83 80 78 77 76 73 71 68 68 69 70 71 73 70 63 54 44 34 28 25 24 22 18 14 11 10 9 9 9 8 8 9 8 8 8 8 7 7 7 7 7 7 7 7 7 8 7 8 11 18 27 38 46
94 96 99 100 99 100 99 99 100 100 99 100 99 99 100 99 98 98 96 94 96 99 98 96 95 93 91 90 88 90 91 85 81 81 79 78 78 76 74 71 69 71 76 78 77 71 60 47 38 31 24 21 20 19 16 13 12 10 10 9 9 10 9 9 8 8 8 7 7 8 7 7 7 7 7 7 7 7 8 7 8 11 16 27 38
91 93 96 98 98 100 99 99 100 99 99 100 99 99 101 99 97 100 98 95 96 95 92 93 94 92 93 93 90 88 85 81 80 83 82 82 81 81 80 75 71 73 79 81 76 67 54 41 33 28 22 18 16 16 16 14 12 11 11 10 11 11 10 9 9 8 8 8 7 7 7 7 7 7 7 7 7 7 7 7 7 8 8 11 16
90 91 94 98 99 100 99 99 100 100 99 100 100 99 99 97 98 101 97 92 92 91 90 92 92 91 94 94 89 86 84 81 81 85 87 87 87 88 85 76 73 78 81 81 74 59 47 38 31 25 21 17 15 15 15 14 12 12 12 13 13 12 9 9 9 8 8 8 7 8 7 7 7 7 7 7 7 7 7 7 7 7 8 9 9
97 96 95 98 99 99 100 99 99 100 100 99 100 99 95 94 98 100 94 89 88 86 88 91 91 92 93 89 84 83 84 84 85 88 93 93 91 93 85 74 77 84 84 81 70 51 40 36 30 26 22 17 15 14 14 14 13 13 14 14 14 12 9 8 8 8 7 7 7 7 7 7 7 7 7 7 7 7 7 7 7 7 8 9 10
99 98 96 98 99 99 100 100 99 100 99 99 100 99 95 95 99 97 89 85 84 84 87 90 91 91 89 85 85 86 88 90 87 88 95 95 92 92 83 73 80 89 86 80 65 47 40 38 36 34 29 20 16 14 12 13 15 15 15 15 13 11 9 8 8 7 7 7 7 7 6 7 7 6 7 7 6 7 7 6 6 7 7 8 10
96 97 97 98 99 99 100 99 99 100 100 99 100 99 97 98 99 94 85 81 82 84 86 87 88 88 85 85 89 90 91 93 87 85 91 93 93 93 80 69 79 88 85 77 63 49 44 43 42 42 35 24 19 16 12 13 16 16 16 15 13 10 8 8 8 7 7 7 6 6 6 6 6 6 6 6 6 6 6 6 6 7 7 8 9
97 98 99 99 99 100 99 100 100 99 99 100 99 99 100 99 97 91 84 80 81 83 83 84 85 86 86 87 91 92 92 92 88 85 88 89 92 89 70 61 74 84 81 76 66 53 48 46 46 46 38 27 20 17 15 14 16 18 18 15 12 10 8 9 8 7 7 6 6 6 6 6 6 6 6 6 6 6 6 6 6 6 7 8 8
99 99 100 99 99 99 99 99 100 99 99 100 99 99 100 99 94 89 83 80 82 83 82 83 84 85 87 89 92 95 94 92 90 88 85 85 85 73 54 52 69 78 77 75 68 56 52 51 51 48 41 33 25 19 17 16 16 18 19 16 13 10 9 9 8 7 7 6 6 6 6 6 7 7 6 6 6 6 7 7 7 7 7 8 8
100 99 100 100 99 100 100 99 100 100 99 100 99 99 100 99 93 87 82 82 83 84 83 83 83 84 87 90 94 98 96 94 91 84 78 75 68 50 36 45 64 73 72 71 67 60 56 53 51 47 41 36 29 20 15 15 16 18 18 16 14 12 11 11 10 8 8 7 7 7 6 7 7 7 7 7 7 8 9 8 9 9 8 9 10
100 99 100 100 99 99 100 99 100 100 99 100 100 99 100 99 91 84 84 86 85 83 82 82 83 84 87 92 96 98 98 96 90 79 70 61 46 29 25 37 56 67 68 65 63 63 59 53 47 42 36 31 27 21 16 14 15 16 18 18 16 14 14 14 13 11 9 8 9 9 8 8 8 8 9 9 9 10 10 11 12 11 11 11 12
100 99 99 100 99 100 100 99 100 100 99 100 100 99 100 99 89 83 87 88 85 81 80 80 82 84 89 95 98 98 98 94 85 74 62 44 26 19 20 28 42 57 63 62 60 59 57 50 40 33 28 23 19 17 15 13 13 15 18 20 19 17 16 16 14 12 10 9 10 11 10 10 9 9 10 10 11 11 11 12 13 13 13 13 13
100 99 99 100 99 98 99 99 100 100 99 100 100 99 100 98 90 85 86 86 82 79 78 77 79 84 91 95 96 96 94 88 80 74 61 37 18 15 19 21 26 34 41 46 47 44 40 34 25 19 17 15 13 12 11 10 11 14 17 20 19 18 18 18 16 14 12 11 12 12 12 12 11 11 11 10 11 12 12 12 12 13 13 14 14
100 99 99 100 99 98 98 99 100 100 99 100 100 99 100 99 94 88 87 85 81 77 74 74 78 85 90 92 93 92 88 84 82 82 75 52 26 15 16 17 18 20 20 21 22 21 19 16 12 11 11 10 9 9 9 9 10 13 17 19 19 19 19 19 18 16 14 14 15 14 13 13 12 11 11 11 10 11 12 12 12 13 13 14 15
100 99 99 99 99 99 99 99 100 99 99 100 99 99 100 100 97 92 89 86 80 75 73 74 79 86 89 91 93 90 87 87 86 85 85 71 40 18 15 16 16 18 19 16 13 12 11 10 10 10 9 9 10 9 8 9 11 13 17 19 19 19 20 20 19 18 16 17 17 14 12 12 11 11 10 11 11 11 12 13 13 13 14 15 15
99 100 100 100 100 100 100 100 99 99 100 100 100 100 99 99 99 96 91 86 78 72 73 76 80 85 90 93 93 89 88 92 89 84 84 73 42 19 16 18 17 18 21 20 17 14 12 11 11 10 11 12 13 11 9 9 11 13 16 17 19 20 21 21 22 22 22 22 19 15 13 11 10 11 11 11 12 12 12 14 14 14 15 16 16
Wind_Speed
24 20 21 23 25 25 24 24 25 26 27 23 23 27 24 21 21 23 25 24 23 22 22 21 20 22 22 21 20 21 22 21 20 18 16 13 11 9 6 5 4 4 3 4 5 5 5 5 4 4 4 3 3 4 4 4 5 6 7 7 7 8 10 11 10 11 12 12 10 7 6 6 4 3 4 6 7 9 11 11 12 12 13 13 14
25 22 24 25 24 25 24 24 25 27 27 25 26 29 25 21 21 23 24 25 24 24 24 23 21 21 21 20 19 21 22 20 19 17 15 13 11 10 7 5 4 3 3 5 6 6 6 5 4 4 4 3 3 4 4 5 6 7 7 8 9 10 11 12 12 12 13 14 12 9 6 5 3 4 4 6 9 12 13 13 13 14 15 15 16
24 25 26 26 24 25 25 26 27 27 27 26 28 29 25 21 21 24 24 25 25 24 24 22 21 21 21 20 20 21 21 20 19 17 15 14 12 10 7 5 5 4 4 5 5 6 5 5 4 3 4 4 4 4 5 5 6 7 7 7 9 11 13 14 14 13 14 14 12 10 8 5 1 2 3 6 12 12 10 11 12 14 15 17 19
27 27 28 28 25 26 28 28 28 28 28 29 30 30 26 22 23 25 24 25 25 24 23 22 21 21 21 21 22 21 21 20 19 17 15 14 12 10 8 6 6 5 5 4 4 5 4 4 4 4 5 4 4 4 4 5 6 7 8 8 9 10 12 16 16 15 15 14 11 9 9 6 2 2 7 8 7 7 10 13 13 15 18 19 20
29 24 25 30 30 29 30 29 29 29 30 32 32 30 28 25 25 26 25 25 26 25 23 22 22 23 23 24 24 22 21 21 19 18 17 15 12 10 8 7 6 6 5 4 4 5 5 4 4 4 4 4 3 3 3 5 6 8 9 9 10 10 12 15 17 16 16 14 11 8 7 4 3 9 13 8 6 11 13 13 15 18 19 20 19
23 18 22 30 31 30 30 29 30 31 32 34 33 30 29 28 26 26 26 26 27 25 23 22 25 26 26 27 26 24 23 22 20 18 17 15 12 10 9 8 7 6 5 4 4 5 5 4 3 3 3 3 2 3 4 6 7 9 10 11 12 12 12 13 15 16 15 14 12 10 8 6 8 12 11 8 11 15 14 14 19 21 20 20 18
21 19 24 30 31 32 32 31 32 33 34 35 33 30 30 29 26 25 25 27 28 27 25 25 28 29 28 27 27 25 23 22 21 19 17 14 13 11 10 9 8 7 6 5 5 5 5 3 3 3 2 2 2 3 5 7 9 10 11 12 12 12 12 12 13 14 12 11 13 12 12 11 11 11 10 10 12 14 15 18 21 21 21 20 18
22 23 28 32 33 33 33 33 33 34 35 35 32 29 27 24 21 20 23 27 28 28 28 28 30 31 30 27 25 24 23 23 21 19 17 15 14 12 10 9 9 8 8 7 6 5 4 4 3 3 1 1 3 4 6 8 11 12 12 13 12 12 12 12 13 12 9 9 11 11 12 12 13 12 12 12 12 13 15 18 20 21 19 18 17
23 25 29 34 32 31 32 33 32 33 34 33 31 27 23 20 19 19 22 27 29 30 29 29 32 32 29 26 24 24 24 23 21 19 18 15 14 13 11 10 10 9 9 8 6 5 4 4 3 2 1 2 4 5 8 11 12 13 13 13 12 12 12 12 11 11 9 9 10 10 11 11 12 12 12 12 12 12 13 16 21 22 20 17 16
24 24 28 32 30 29 31 32 32 33 34 32 30 28 23 21 20 21 23 27 30 31 29 30 33 30 25 23 22 23 23 23 22 19 17 15 14 13 11 11 10 10 9 7 6 5 4 3 2 1 1 3 5 8 11 13 13 13 12 11 11 11 11 11 10 10 10 11 11 11 11 11 11 12 13 13 12 10 11 15 18 20 21 18 17
23 23 25 28 29 30 31 31 31 32 33 31 31 29 25 22 21 22 25 28 31 32 31 32 31 27 23 21 21 22 22 22 22 19 16 15 14 13 12 11 11 10 8 7 6 5 4 2 1 2 3 5 8 10 12 12 12 11 10 10 10 10 10 10 10 11 11 12 12 12 12 13 13 13 14 13 12 10 12 15 16 20 21 16 17
22 22 23 25 28 30 31 30 30 32 32 32 31 28 24 22 22 23 26 30 31 30 31 30 25 23 23 22 21 22 21 20 19 17 15 13 12 13 12 11 11 10 9 7 6 4 3 2 1 3 6 8 10 11 11 10 9 9 9 9 9 9 10 10 10 11 11 11 11 12 13 13 13 13 14 14 13 12 14 17 18 22 23 17 17
22 22 23 26 29 30 31 31 30 31 31 31 30 26 23 23 24 26 28 30 30 28 29 28 22 21 23 22 22 23 20 18 17 14 12 11 12 14 12 11 11 10 9 8 6 4 3 1 3 6 7 9 9 9 8 7 7 7 8 9 9 9 10 10 10 10 10 10 11 11 12 12 12 13 13 13 13 14 16 19 20 22 24 22 19
23 22 22 25 28 28 31 31 30 31 30 30 29 25 23 23 26 28 29 29 28 26 27 26 20 21 22 22 22 20 17 16 14 11 9 10 11 11 12 12 10 10 9 7 5 3 1 2 5 7 8 8 8 7 6 6 7 7 8 9 9 10 10 10 10 9 9 9 10 11 11 12 12 12 12 12 13 15 17 18 20 22 24 24 22
23 22 21 24 27 27 29 30 30 30 30 29 29 25 23 25 28 29 27 27 25 24 25 23 20 21 21 20 18 16 14 14 12 9 9 9 9 9 12 13 10 8 8 6 4 2 2 3 5 7 8 7 6 5 5 6 7 8 9 9 9 10 10 9 9 9 9 9 10 11 11 11 11 12 12 13 15 16 17 16 18 22 24 25 24
23 22 22 23 25 26 28 29 30 30 30 29 28 25 25 28 29 28 25 24 23 23 23 20 19 19 18 18 17 13 13 13 11 11 11 10 9 11 14 12 9 7 6 4 3 3 2 4 6 8 8 7 5 5 5 7 8 9 10 9 9 9 9 8 8 9 9 10 10 11 11 11 11 12 13 14 16 17 17 17 18 20 22 24 26
24 23 22 22 24 25 26 28 30 30 29 28 26 25 27 29 28 26 24 23 21 22 23 19 18 18 18 19 18 15 14 13 12 13 13 12 12 14 14 11 8 6 4 3 3 2 2 5 7 9 8 5 4 5 6 8 9 10 10 9 8 9 8 8 8 9 9 10 10 10 10 10 11 13 14 15 17 17 17 18 20 20 19 19 21
22 22 22 22 23 24 26 28 30 29 28 26 25 26 28 28 26 25 24 23 21 20 20 19 18 18 18 18 17 16 14 13 13 13 14 15 15 16 14 10 8 6 4 3 2 1 3 5 8 9 7 5 4 6 8 10 10 10 9 8 8 8 8 8 8 9 9 10 10 10 10 11 12 14 15 15 16 17 18 19 20 20 20 18 16
23 22 22 23 24 24 27 29 29 28 26 24 23 26 28 26 23 23 23 22 21 18 17 17 16 16 16 15 15 15 12 12 13 14 16 17 18 17 14 9 8 7 4 2 0 2 4 6 8 8 6 4 6 8 9 10 9 9 8 7 8 8 7 8 8 9 10 10 10 10 11 13 14 15 15 16 17 18 19 19 20 21 21 21 18
24 23 23 23 24 26 29 29 28 27 24 23 24 26 26 23 22 22 22 22 21 19 18 16 15 15 16 16 16 15 13 12 14 16 17 20 20 18 13 10 10 7 3 1 1 3 5 7 8 7 5 6 8 9 10 10 9 8 7 7 7 8 7 8 9 9 10 11 11 11 13 15 15 15 16 18 19 20 20 21 22 23 23 24 23
22 22 22 23 25 27 29 29 28 26 24 24 25 26 24 22 23 24 23 22 21 20 18 16 15 18 18 18 19 17 16 15 16 17 18 22 22 17 12 12 9 5 2 1 1 3 6 8 7 5 5 7 9 9 9 9 8 8 7 6 7 8 8 9 9 10 11 12 11 12 15 16 15 16 18 20 21 21 22 22 23 24 25 26 26
20 20 22 24 27 29 30 29 28 26 24 25 25 24 24 24 24 23 22 21 20 19 17 14 15 18 19 20 20 18 17 17 19 20 20 23 22 16 13 10 6 3 1 0 2 4 6 7 5 3 7 9 9 9 9 9 8 7 6 7 8 8 8 9 10 11 13 12 12 14 16 17 17 18 20 21 22 22 23 23 24 26 26 27 27
19 21 24 25 28 30 30 29 28 26 25 25 25 25 25 25 24 23 22 20 20 18 15 13 16 17 18 20 19 17 17 18 20 22 22 23 21 15 10 6 3 3 2 1 3 4 5 5 3 6 9 10 9 9 9 8 7 7 7 7 8 8 9 10 11 13 13 13 13 15 17 18 18 20 21 23 23 24 24 25 26 27 27 28 27
19 21 24 26 28 29 29 28 27 26 26 27 27 27 26 25 24 23 22 20 19 17 16 15 17 18 18 18 15 15 17 18 20 22 22 21 17 11 7 5 4 3 2 3 3 4 4 2 5 9 11 11 10 10 9 7 7 7 7 7 8 9 10 11 13 13 14 13 15 17 19 19 20 21 23 24 24 25 26 26 28 28 29 30 27
20 21 24 26 28 28 28 27 25 26 27 27 28 27 26 24 23 21 20 19 18 16 15 15 17 19 18 15 12 14 16 17 19 21 20 17 12 8 7 7 5 4 3 3 4 2 1 6 10 11 12 11 10 9 8 7 8 8 7 8 9 11 11 12 14 14 14 15 17 19 20 20 21 22 24 25 25 26 26 27 28 29 30 32 31
20 21 24 26 27 26 25 24 23 25 27 27 26 25 23 22 21 19 19 18 16 14 12 16 20 19 15 13 14 16 16 17 19 19 17 14 10 9 8 6 5 5 4 4 3 2 6 10 12 13 12 11 10 9 8 8 9 9 9 10 11 11 12 13 14 15 16 17 18 19 20 21 22 23 24 24 25 25 26 27 29 30 31 32 32
20 22 25 26 24 23 23 24 25 26 27 25 24 23 22 22 20 18 18 16 14 14 13 16 19 16 13 13 17 18 17 18 18 16 14 13 11 9 7 6 6 6 5 4 3 7 11 13 13 13 12 10 8 8 8 9 10 10 11 11 11 11 12 14 15 16 17 18 19 20 20 21 22 23 24 24 24 25 27 28 29 30 31 32 32
21 24 26 26 24 23 24 26 27 27 26 24 22 22 22 21 20 19 18 15 15 17 16 15 15 15 16 19 20 19 18 18 17 16 15 12 10 8 7 8 8 7 5 5 7 10 13 14 14 12 10 9 9 9 10 10 11 12 12 12 12 12 13 15 16 18 19 19 20 20 21 21 22 23 23 24 24 25 27 27 28 29 30 31 32
23 25 27 26 25 25 27 28 27 27 26 24 22 22 22 23 22 21 18 17 19 18 15 15 15 17 21 24 23 21 19 18 17 15 12 10 9 9 10 10 9 7 7 9 11 12 14 15 13 11 10 10 11 12 12 12 12 13 13 13 13 14 15 16 18 19 20 20 20 20 20 21 21 22 23 23 24 25 26 27 28 29 30 31 31
26 25 26 27 26 27 27 28 28 27 26 25 24 24 25 24 23 22 20 20 19 16 15 18 19 20 23 25 24 22 20 19 17 13 11 11 11 11 11 10 9 9 11 13 14 15 14 13 11 11 11 12 13 14 14 13 13 14 14 13 14 16 16 18 19 19 20 20 20 20 20 20 21 21 22 23 23 24 26 27 28 28 29 30 30
28 26 25 27 27 27 27 28 28 27 26 25 25 26 26 24 21 21 21 21 18 16 18 21 21 22 25 25 24 23 21 18 15 13 12 12 11 11 10 10 11 13 15 16 17 16 14 12 11 11 12 14 15 15 15 14 14 14 14 14 15 17 18 19 19 19 19 20 20 20 20 20 21 21 21 22 23 23 25 26 26 27 28 29 30
25 27 26 26 27 27 28 28 27 26 26 26 27 28 26 24 24 25 23 21 18 18 19 21 23 25 25 24 23 22 19 17 15 13 12 11 10 10 11 13 14 16 17 17 17 15 14 13 12 12 14 15 16 16 15 15 15 14 14 15 17 18 19 19 18 19 19 20 20 20 20 20 21 21 21 22 22 23 24 25 25 26 26 28 29
21 27 27 26 27 27 27 27 27 27 26 25 25 26 25 25 28 30 27 21 18 19 20 21 24 27 27 26 24 21 18 17 14 12 10 9 10 12 14 16 17 17 17 17 16 16 15 14 13 14 16 17 17 16 15 15 15 15 15 16 18 19 19 18 18 18 19 20 20 20 20 20 20 20 21 21 22 22 23 23 24 25 25 26 27
19 25 27 26 27 26 26 26 26 26 25 22 23 24 24 25 28 30 26 20 18 22 25 26 27 29 28 25 22 19 17 16 14 13 12 11 13 15 16 17 17 18 18 18 18 18 16 14 14 16 18 18 18 17 15 15 15 16 16 17 18 19 18 18 18 18 19 19 19 19 20 20 20 20 20 21 21 21 21 22 23 24 25 25 26
22 26 28 28 28 28 26 26 26 25 23 23 23 24 25 25 26 25 23 22 21 23 27 29 28 27 24 21 18 17 17 15 14 15 15 15 16 17 18 18 18 19 19 20 19 18 16 16 17 18 19 19 18 17 15 15 16 16 16 17 18 18 18 18 18 18 18 19 19 19 19 19 19 20 20 20 20 20 20 21 21 22 23 24 25
27 28 28 27 27 27 26 26 25 24 24 24 24 24 24 25 26 23 21 22 24 23 26 29 27 25 22 20 19 18 17 16 16 17 18 18 19 19 19 19 20 20 20 20 19 17 16 18 18 18 19 20 19 17 16 16 16 16 16 17 18 18 18 17 17 17 17 18 18 18 18 18 19 19 19 19 19 19 19 20 20 21 21 22 23
27 27 26 25 24 24 24 25 24 24 24 24 24 24 23 22 24 22 19 22 25 25 27 28 26 24 24 22 21 20 17 17 18 20 20 20 20 19 19 19 21 22 22 20 19 17 17 18 20 20 19 20 20 18 17 16 16 16 16 16 17 17 17 17 16 17 17 16 17 17 17 17 17 17 17 17 17 18 18 19 20 20 20 20 19
24 24 24 23 22 22 23 24 24 25 24 23 23 25 22 19 20 23 23 25 26 25 26 26 24 24 24 23 21 19 18 18 20 21 21 20 20 19 19 19 21 22 23 21 18 18 19 19 20 20 19 19 19 18 17 16 16 15 15 16 16 15 16 16 16 16 15 15 15 16 16 16 16 16 16 16 16 16 17 18 19 19 20 20 19
22 22 22 22 22 23 24 25 26 26 25 24 25 24 19 14 19 25 27 27 27 25 25 24 24 24 23 21 19 17 18 20 21 21 21 20 20 20 19 20 22 23 22 21 19 20 21 20 20 19 18 18 18 18 17 16 16 15 15 15 14 14 15 15 15 14 14 14 14 14 14 14 14 14 14 14 14 15 16 17 17 18 19 20 19
23 22 21 21 22 25 27 27 26 24 25 25 25 21 15 15 21 26 27 27 27 25 24 24 24 23 20 18 17 17 19 21 21 22 21 20 19 19 19 22 24 24 23 21 21 21 22 22 21 19 18 17 18 18 17 16 15 15 14 14 13 13 13 14 14 13 13 12 12 12 12 12 13 13 13 13 13 14 15 15 16 17 18 18 18
23 22 20 19 21 24 25 25 24 23 25 26 25 22 19 19 22 25 27 28 28 26 25 24 23 21 19 18 19 20 21 21 21 21 21 20 18 17 19 23 25 25 24 22 22 22 23 23 21 19 18 18 18 18 17 16 15 14 13 13 12 12 13 13 12 12 11 11 10 10 10 10 11 11 11 11 12 12 13 14 14 15 16 16 16
20 19 18 19 21 23 24 24 23 24 26 26 25 24 21 21 24 27 28 29 29 26 24 22 20 20 20 21 22 22 23 23 22 20 20 20 18 17 20 24 25 25 24 23 23 23 23 23 21 19 19 19 18 17 16 16 15 13 12 12 12 11 12 11 11 11 10 9 9 9 9 9 10 10 10 10 11 11 12 12 13 13 14 14 15
19 19 20 19 19 22 24 25 25 26 26 25 23 22 22 24 27 28 29 29 28 25 23 21 20 21 22 23 24 24 25 24 22 21 20 20 19 19 21 24 26 25 24 24 23 23 23 23 21 20 20 19 18 17 16 15 14 13 12 11 11 11 10 10 10 9 9 8 8 8 8 9 9 9 9 9 9 10 10 11 12 12 12 13 13
19 19 21 19 18 21 25 25 24 25 25 23 20 20 22 26 28 29 30 30 26 23 22 21 21 22 23 24 25 26 25 23 22 21 20 20 20 22 24 26 26 26 25 25 24 24 24 23 22 20 20 19 18 17 15 14 13 12 11 10 10 10 9 9 9 8 8 8 8 8 8 8 8 8 8 8 8 9 9 10 10 11 11 12 12
18 18 19 17 17 21 24 25 24 23 23 21 19 18 21 27 30 31 31 29 25 23 23 22 22 24 25 26 26 26 24 22 21 21 20 21 23 24 26 27 27 27 26 25 25 25 24 23 22 21 20 19 18 16 15 14 13 12 10 9 9 9 8 8 8 8 8 8 8 8 7 7 8 8 7 8 8 8 9 9 10 10 10 11 12
17 16 16 16 18 21 23 24 24 24 24 22 19 18 21 27 31 30 28 27 25 24 23 23 24 26 27 27 27 26 23 21 20 20 19 20 23 26 27 28 27 27 26 25 25 25 23 22 21 21 20 19 18 16 15 14 13 12 11 9 9 8 7 7 7 7 7 7 7 7 7 7 7 6 6 6 7 8 8 9 9 10 10 11 12
14 14 14 14 17 21 23 24 24 26 26 25 23 23 24 27 30 29 27 26 24 23 23 23 25 28 28 28 27 26 24 22 22 21 20 21 23 25 26 27 27 27 26 25 24 24 23 22 21 20 19 18 17 16 16 14 14 13 11 10 9 8 7 7 7 7 7 6 6 6 6 5 5 4 5 5 6 7 8 9 9 10 10 11 12
14 14 15 15 16 18 20 23 24 25 27 27 27 27 27 27 29 28 26 25 24 22 22 24 26 29 29 28 26 25 25 25 24 22 21 21 23 24 24 24 24 24 24 24 24 23 22 21 20 20 19 18 17 17 15 14 14 13 12 10 9 8 7 7 7 6 6 6 5 5 4 4 3 3 4 5 6 6 7 8 9 10 10 11 12
15 16 15 15 15 15 17 19 21 23 25 27 28 28 26 27 29 28 26 25 24 23 23 25 28 30 30 28 26 26 26 26 24 22 20 19 21 21 21 20 20 19 18 18 19 20 20 19 18 18 17 17 16 15 15 14 13 13 12 11 9 8 8 7 6 6 6 5 4 4 3 2 2 3 3 4 5 6 7 8 9 9 10 11 12
15 16 15 14 14 13 14 16 18 21 23 25 26 27 27 28 29 28 26 25 24 24 25 27 30 31 30 29 27 27 26 25 24 23 21 20 20 20 18 18 18 17 16 14 13 14 16 16 16 15 14 13 12 13 13 13 13 13 12 11 10 9 8 7 5 5 5 4 3 3 2 2 2 2 3 4 5 6 6 7 8 9 10 11 12
12 13 14 15 15 15 16 17 19 22 24 24 24 25 28 30 29 26 25 24 24 25 28 30 31 31 30 30 29 28 26 25 23 22 21 22 23 23 20 18 18 17 17 16 14 14 14 14 14 14 14 13 13 14 14 13 13 13 12 11 10 9 7 6 6 5 4 3 3 3 2 2 2 2 3 4 4 5 6 7 8 9 10 11 12
Wind_Direction
223 220 221 222 225 227 225 220 217 220 222 219 221 224 220 212 210 211 214 213 210 208 206 205 203 204 205 201 195 191 193 196 195 193 193 194 191 185 181 175 171 177 193 216 220 218 227 237 246 256 259 261 273 287 298 307 313 315 313 317 323 325 327 331 332 331 330 333 342 354 352 340 327 300 284 274 277 292 300 300 300 299 297 299 305
224 226 228 228 228 228 225 222 221 222 222 218 219 224 221 215 211 207 210 213 212 211 211 211 206 202 201 201 199 193 194 199 199 199 198 195 191 186 181 180 186 198 224 233 224 219 225 237 247 250 254 264 280 294 303 307 314 316 316 321 326 328 330 331 334 335 336 339 345 353 358 355 322 289 269 265 288 295 291 293 298 300 301 306 311
225 227 229 231 230 228 227 226 225 224 224 220 219 223 222 216 209 204 209 214 213 212 213 212 207 205 205 204 201 196 196 202 206 205 202 196 193 190 189 195 202 216 237 232 217 215 222 232 241 245 254 270 290 301 304 304 310 316 322 329 330 331 330 330 333 335 339 343 347 348 351 1 355 249 245 283 299 296 289 294 301 308 313 317 320
222 224 226 229 228 228 229 228 225 223 222 220 219 221 220 215 207 201 207 214 212 210 210 210 208 207 207 202 198 195 199 207 209 206 203 199 196 196 200 204 207 220 235 223 206 207 208 219 228 237 254 270 286 295 300 306 316 324 327 332 333 331 327 328 332 334 338 345 353 352 347 4 64 284 313 323 318 312 313 313 313 319 324 327 329
220 219 219 224 226 228 229 227 225 221 219 221 221 219 217 215 210 202 204 209 210 207 205 207 205 201 200 198 195 197 206 212 209 206 205 203 200 202 206 203 202 216 226 210 199 203 199 202 213 227 247 259 272 288 307 317 325 329 327 328 330 328 325 327 329 332 336 343 354 358 351 358 337 325 336 349 338 326 324 323 326 330 335 340 343
221 216 217 223 225 227 227 225 224 222 222 225 223 218 216 216 211 205 204 206 208 206 206 211 206 199 197 194 193 200 208 210 209 209 208 206 205 207 206 198 199 210 213 205 206 207 195 189 202 217 235 249 277 311 322 326 327 328 325 324 324 323 325 326 327 330 334 340 348 352 351 342 332 337 345 336 326 330 334 334 337 345 352 355 358
219 219 222 225 226 227 226 224 224 223 224 229 226 218 217 218 213 209 209 209 208 208 210 211 205 198 195 193 193 198 204 207 211 211 209 211 211 207 201 195 198 204 203 204 211 209 195 187 200 211 225 258 316 326 326 326 325 323 321 318 319 321 325 326 326 329 333 338 342 344 346 346 345 347 344 335 330 332 336 337 341 352 360 1 5
213 218 224 227 228 228 227 224 224 225 227 230 226 216 217 221 218 215 218 217 213 213 214 210 203 197 194 192 193 197 203 208 211 210 209 212 210 203 196 194 196 198 198 202 206 199 188 188 196 208 229 306 326 322 320 320 319 317 315 315 318 323 326 328 330 333 335 335 341 346 348 351 353 352 350 346 335 326 332 338 341 350 359 2 2
213 215 222 227 226 226 227 227 226 226 228 227 219 217 220 220 215 213 220 222 219 218 218 212 205 201 197 195 194 196 203 209 211 210 208 206 203 198 193 195 198 196 195 197 193 180 177 187 191 197 246 319 320 319 318 315 313 313 313 315 320 326 331 335 337 339 340 344 352 358 359 359 358 356 353 351 344 334 333 338 343 350 359 2 1
213 215 222 226 225 225 227 228 228 228 227 221 217 223 224 215 210 209 216 223 222 221 220 213 206 202 201 202 199 195 198 207 211 209 206 200 198 197 193 196 199 197 195 188 179 176 181 188 182 193 268 308 317 320 316 312 311 312 315 320 327 335 341 346 347 347 353 0 5 5 4 4 3 1 358 358 359 350 339 342 346 349 354 358 359
210 212 219 222 224 228 230 229 229 228 224 218 217 223 222 216 211 208 216 225 226 223 218 211 206 203 204 206 204 197 195 205 210 206 203 200 200 199 194 195 198 197 193 181 176 179 179 184 214 277 311 328 329 323 316 312 312 315 322 331 341 350 355 357 358 360 5 7 5 4 5 7 8 6 5 6 7 359 349 349 346 346 352 353 351
205 208 212 215 221 226 228 227 226 225 221 215 215 218 221 221 214 209 219 227 229 225 218 216 212 205 206 208 206 201 198 206 209 205 201 201 209 211 201 194 194 191 185 178 180 177 172 199 293 332 343 341 331 323 318 319 322 327 340 351 0 5 7 9 10 10 11 7 5 6 7 10 10 9 12 13 10 2 354 350 346 349 354 352 350
202 204 206 210 216 219 222 223 223 222 218 210 211 217 221 223 217 214 221 228 231 228 223 222 213 203 205 206 206 204 203 206 209 208 204 206 220 224 213 198 190 187 181 177 178 179 184 238 355 359 351 340 331 328 331 337 344 353 4 12 16 18 19 21 18 13 11 7 8 11 12 13 14 15 17 14 6 360 354 351 351 352 355 355 356
201 200 202 207 211 215 218 219 219 219 215 207 212 220 219 216 217 219 223 228 231 227 222 220 209 204 206 205 206 206 204 206 209 211 215 215 219 223 216 202 189 184 178 172 176 182 171 23 9 355 345 340 340 346 354 4 13 18 24 28 27 27 28 24 17 14 14 14 17 18 18 19 19 18 15 8 2 360 359 358 356 354 356 357 358
200 199 199 203 208 212 214 216 217 217 213 208 213 219 214 211 215 218 221 226 228 222 219 216 206 202 202 204 210 209 206 212 212 212 220 221 217 215 211 200 185 177 173 170 169 143 65 20 358 348 350 353 359 8 16 26 33 37 39 38 33 32 31 24 20 21 21 21 24 24 24 22 18 14 10 5 4 5 7 6 2 360 359 358 1
198 199 197 199 206 211 212 212 214 213 211 209 212 214 209 208 213 216 218 224 225 218 212 206 198 195 197 206 211 208 212 217 213 212 216 214 211 210 204 192 181 179 171 157 132 99 52 2 352 356 2 8 12 21 34 46 51 50 47 42 38 36 34 28 27 29 27 28 29 28 25 20 16 14 12 12 11 13 14 11 11 12 6 0 0
195 197 194 194 200 207 210 209 209 210 210 210 212 209 205 206 210 213 218 223 223 216 207 197 193 193 197 205 209 212 221 221 214 214 213 204 202 204 198 185 181 186 166 140 120 86 19 357 356 1 9 16 24 41 57 64 62 55 51 46 42 42 39 34 34 33 31 32 31 28 25 23 23 22 20 21 19 20 20 17 18 22 20 11 2
192 194 191 190 196 203 205 205 206 207 209 212 210 204 203 208 210 213 219 220 217 213 204 198 199 201 204 207 214 221 224 221 217 213 209 202 194 196 193 183 181 180 167 160 140 32 353 357 356 2 15 30 48 68 75 71 65 58 54 50 47 49 45 38 39 37 34 36 33 31 32 32 33 32 30 31 30 28 29 27 28 30 30 28 16
190 190 188 189 194 199 199 200 203 206 211 211 202 199 204 207 208 212 218 217 214 210 204 201 205 211 213 211 217 222 216 217 218 204 200 201 193 188 187 182 179 173 173 185 65 2 352 358 357 4 26 56 73 82 79 72 68 62 58 52 52 57 52 43 43 42 41 43 41 39 42 43 42 42 40 40 39 38 38 37 38 40 36 33 29
188 186 186 189 192 196 197 198 200 205 210 205 197 199 203 201 202 208 212 214 214 213 212 211 205 205 211 210 213 212 199 202 211 200 196 200 192 181 177 177 175 170 173 184 26 1 354 358 357 8 47 82 87 87 81 74 70 63 57 56 63 65 55 47 51 52 52 51 49 50 53 53 51 49 49 47 45 45 47 46 43 42 39 34 32
186 182 184 188 192 194 197 198 199 203 206 201 198 200 199 197 203 209 210 211 213 213 216 215 199 196 203 205 206 201 187 188 203 203 198 196 188 175 170 173 171 168 174 149 16 351 349 351 355 22 81 98 96 92 84 78 71 62 61 68 75 70 56 55 60 61 60 58 58 61 61 60 58 56 55 54 52 51 51 51 47 43 39 34 31
180 181 185 188 190 191 193 195 197 200 201 198 197 198 198 199 205 209 209 209 211 212 212 207 196 195 199 201 201 196 186 185 194 198 196 192 185 171 165 168 166 170 175 328 333 337 344 347 1 69 109 109 104 96 87 81 72 68 76 82 79 69 61 66 68 67 67 64 64 67 67 66 63 61 61 57 55 56 54 52 48 43 39 33 28
176 183 186 185 186 188 189 192 195 198 197 196 195 197 200 202 203 206 207 207 211 214 212 204 198 198 200 200 199 194 189 186 187 190 191 189 180 164 159 167 184 196 198 292 309 328 340 351 50 115 121 115 107 96 87 82 79 82 88 85 78 74 72 75 74 71 71 69 70 72 71 69 66 63 62 58 55 55 53 49 46 42 38 32 27
176 183 185 183 184 185 187 192 195 196 192 191 196 199 202 203 204 204 205 205 208 213 214 207 201 201 202 199 196 195 193 187 183 185 186 183 172 160 168 191 204 218 248 281 297 327 343 45 116 128 125 115 105 95 88 86 91 95 92 85 83 84 82 81 78 77 77 76 76 77 75 71 68 64 60 57 55 53 50 47 43 40 37 33 28
178 182 183 183 183 186 190 194 193 191 189 191 197 200 200 202 202 201 199 198 200 207 211 208 204 201 198 196 200 201 195 188 186 185 181 177 172 173 187 195 210 241 263 279 297 325 86 126 131 131 123 113 104 97 94 99 104 101 94 91 91 90 86 84 82 81 82 82 80 79 77 73 67 63 60 57 54 52 49 46 42 38 36 34 30
178 180 181 182 184 189 193 190 185 186 190 193 197 198 197 197 197 197 195 191 194 203 206 206 204 195 186 195 203 198 190 188 188 182 177 178 182 184 188 198 224 245 259 277 277 159 139 138 135 128 118 110 104 101 104 111 112 106 100 97 94 91 88 86 86 86 85 83 82 79 77 73 67 63 60 56 54 51 48 44 41 38 36 34 31
176 179 179 179 184 190 189 184 183 185 189 192 193 191 188 187 189 192 193 192 194 195 197 204 200 185 178 196 199 190 182 183 184 182 182 186 185 185 195 217 231 239 254 256 192 152 144 140 133 125 117 112 108 110 116 120 117 110 105 100 95 93 92 91 90 89 86 82 80 78 75 70 66 62 59 57 54 50 47 43 40 38 36 35 33
174 175 175 175 180 185 183 182 184 185 185 187 188 187 185 186 187 184 186 191 191 190 199 204 192 181 184 189 188 184 180 181 185 187 188 188 188 198 217 231 235 239 234 196 164 154 147 139 132 127 124 121 119 121 125 126 120 111 106 103 99 97 96 95 93 89 85 81 78 76 72 68 65 61 59 56 53 50 46 43 40 39 37 35 34
173 172 172 174 176 178 180 181 183 183 181 181 182 183 185 188 187 185 190 196 191 194 204 199 184 185 188 183 180 180 179 183 188 188 189 196 207 218 227 231 231 221 191 168 159 156 149 141 137 134 131 128 128 129 128 124 116 110 107 105 103 102 100 98 94 89 85 81 77 75 72 69 65 62 59 56 53 49 45 43 40 39 38 36 35
174 173 173 175 177 179 181 181 182 182 179 179 180 180 183 187 188 191 195 191 187 195 200 190 183 185 184 179 178 180 181 184 188 192 204 213 213 216 221 220 207 182 170 164 157 152 147 144 143 140 136 135 135 132 127 121 115 110 108 106 105 106 104 100 96 91 87 83 79 76 74 72 69 65 61 58 54 50 46 43 40 38 38 37 36
176 177 175 176 179 182 183 184 184 184 183 181 181 182 185 188 189 192 191 185 187 196 194 186 183 180 178 178 180 182 182 184 189 199 209 210 209 212 209 195 178 168 164 159 153 149 147 146 144 141 139 139 137 132 127 123 116 109 107 107 109 110 107 103 98 94 90 85 82 80 77 74 71 67 63 59 55 52 48 45 42 38 37 37 38
172 177 177 178 181 184 186 186 187 187 186 184 184 185 187 189 189 187 187 188 191 192 190 187 181 177 179 182 182 182 184 188 195 204 208 208 208 203 188 174 167 164 160 155 152 152 150 147 145 143 142 142 139 133 129 123 115 110 108 109 112 112 108 104 100 96 92 87 84 81 78 75 72 68 65 61 57 53 49 46 44 41 39 38 38
165 174 180 182 185 188 188 187 186 187 189 188 188 189 189 193 193 185 182 187 189 186 187 186 180 179 181 181 181 185 189 191 195 199 197 199 196 182 170 164 162 160 159 156 155 154 151 149 148 147 147 145 140 134 129 122 115 112 112 112 114 112 109 106 102 98 94 90 86 83 79 76 72 69 66 63 59 55 50 47 45 43 42 41 40
168 174 183 188 190 191 192 191 191 191 192 189 190 192 190 194 195 186 180 183 185 185 186 182 180 182 182 181 183 190 192 189 190 189 182 180 180 170 163 162 161 161 161 158 156 156 153 151 151 152 151 146 139 135 130 123 118 114 114 115 115 112 110 107 104 99 95 92 88 85 81 78 74 71 67 63 60 56 52 48 45 42 42 42 40
182 183 190 195 195 194 192 193 195 193 191 189 190 193 192 193 194 188 184 183 181 183 184 180 181 185 185 185 190 193 190 187 189 188 178 172 172 167 163 164 162 161 161 158 157 158 155 152 154 156 152 145 139 136 131 125 121 117 116 117 115 113 111 108 103 100 96 92 88 85 82 79 75 71 67 63 60 57 54 51 47 43 41 40 38
191 191 196 198 199 197 194 194 194 193 191 190 190 191 191 192 190 186 186 187 182 183 184 181 182 187 189 194 196 193 190 188 188 184 173 167 168 166 165 164 161 161 161 160 160 160 156 154 157 157 153 146 141 138 133 128 123 119 118 117 114 112 110 106 103 99 95 91 88 85 82 78 75 71 67 63 61 59 56 54 52 48 45 42 37
194 193 196 198 199 200 199 198 197 196 194 192 192 192 189 190 189 185 187 189 184 182 186 186 188 192 194 197 198 198 197 191 184 178 171 167 167 166 165 163 162 163 163 162 162 160 157 156 157 158 154 146 141 139 135 130 125 122 119 116 113 111 108 105 102 98 94 91 88 85 81 78 75 71 68 64 60 59 57 55 55 52 50 47 42
197 194 194 197 200 201 202 202 199 196 194 195 197 191 182 183 189 188 188 187 182 182 186 189 193 198 196 194 198 202 197 186 180 177 174 169 166 164 163 165 166 166 164 164 163 159 157 158 158 157 154 148 143 140 137 133 129 125 120 115 111 110 108 105 102 98 96 92 88 84 81 78 75 71 68 64 60 57 55 53 52 51 49 46 43
197 195 193 194 197 198 201 202 200 197 196 198 194 184 177 187 195 190 187 183 180 184 189 192 196 198 195 194 197 197 187 181 179 178 174 169 164 163 164 166 168 168 166 165 164 158 156 157 156 155 154 151 146 142 139 136 132 127 122 117 113 111 109 107 104 100 97 93 88 85 82 79 75 70 66 63 59 55 52 50 48 47 46 43 39
192 193 193 193 195 196 197 198 200 200 198 194 187 179 183 201 197 188 184 182 182 186 193 197 198 196 194 193 191 186 182 181 178 173 170 168 166 165 166 166 168 170 169 166 163 159 156 155 155 155 156 155 150 145 142 140 134 128 124 120 117 114 112 110 107 103 98 94 90 85 82 78 74 70 64 59 56 53 50 47 44 43 43 40 37
193 195 195 195 197 200 201 201 201 200 194 189 186 185 193 202 196 183 180 183 186 188 193 199 198 193 189 185 180 179 180 177 173 169 169 170 170 171 170 168 169 171 170 165 162 160 158 156 156 157 158 156 151 147 145 141 135 130 126 123 120 118 117 113 110 106 100 95 92 87 82 77 72 68 62 57 53 49 47 45 42 41 40 37 34
200 200 198 198 198 201 203 202 200 197 193 190 191 193 197 199 189 179 180 187 189 189 193 197 193 187 182 176 174 177 177 172 171 173 174 174 175 176 174 171 171 172 171 166 163 163 162 160 158 157 156 155 152 149 147 143 137 133 128 124 121 121 120 116 113 109 103 98 95 90 84 77 71 66 60 56 52 47 44 42 40 39 38 34 31
199 199 198 198 197 198 199 197 196 196 196 195 196 199 200 192 181 178 184 189 188 188 190 191 187 182 178 174 173 175 175 173 173 176 178 178 176 175 174 173 173 174 172 168 166 167 165 162 159 157 156 156 154 152 149 146 142 137 131 127 124 123 120 116 114 111 106 102 98 91 85 78 71 65 59 54 51 46 43 40 38 37 35 32 30
197 198 197 197 198 197 196 195 195 196 196 196 200 206 201 188 179 182 187 185 184 186 187 186 184 181 176 174 174 174 174 175 175 176 178 178 176 173 173 173 174 176 174 171 169 169 168 164 161 160 160 159 156 154 153 152 148 142 137 133 128 123 119 115 114 111 108 104 98 91 85 77 69 64 58 52 49 45 42 40 37 35 33 30 29
196 197 196 199 201 199 195 193 194 196 197 200 207 212 200 185 180 184 185 182 183 186 185 184 183 179 177 175 173 173 174 175 175 176 176 177 175 172 170 172 175 177 177 174 171 171 171 169 166 164 164 162 160 159 159 158 154 149 145 139 133 127 121 116 113 112 109 106 99 90 84 76 67 61 54 48 44 41 39 38 35 32 31 29 27
193 195 195 198 202 201 197 195 195 197 199 203 208 210 199 186 181 183 184 183 184 184 184 184 181 178 177 175 172 173 174 174 173 173 174 175 174 171 169 171 174 178 179 177 175 174 175 174 170 168 167 165 163 165 166 164 160 156 151 147 141 134 126 119 116 115 111 106 100 91 83 75 66 58 52 45 40 35 34 32 29 27 27 26 25
192 196 198 202 205 202 200 200 199 199 201 202 202 201 198 190 184 184 185 185 186 186 184 181 178 177 176 174 173 174 173 171 171 170 170 173 172 170 169 171 174 177 179 179 178 176 177 177 174 170 168 167 168 171 171 169 166 162 158 155 149 139 130 124 120 118 113 108 102 94 85 79 70 60 52 44 37 32 29 26 23 22 21 21 21
191 196 200 205 207 206 206 208 206 205 205 203 199 197 196 191 187 187 187 187 189 189 185 181 179 176 174 173 174 174 171 169 169 167 167 170 170 169 170 171 173 176 177 178 178 177 177 176 174 170 170 172 174 176 174 172 170 166 162 159 154 145 136 128 123 123 118 111 105 99 91 86 77 60 46 37 30 27 24 22 20 18 17 18 17
192 195 200 207 209 211 217 218 215 214 211 204 198 196 194 192 191 190 189 189 189 188 185 183 179 175 173 172 174 175 172 169 168 166 165 167 168 167 168 170 171 171 173 175 175 174 174 173 173 172 174 175 178 178 176 175 173 167 164 161 157 150 142 133 129 129 122 114 110 109 104 97 80 59 44 33 26 23 21 18 16 15 14 15 15
194 195 199 206 209 214 223 225 225 222 215 206 200 196 193 194 195 193 192 191 188 185 184 182 178 175 174 174 175 176 174 171 169 167 165 164 164 164 165 166 166 166 167 171 173 173 173 172 173 175 176 177 181 183 181 179 175 169 166 163 158 153 147 140 137 132 125 120 123 123 121 118 96 67 50 39 26 21 20 15 12 13 13 13 15
193 196 202 206 209 211 215 222 226 222 214 208 205 199 195 195 195 195 195 194 189 186 183 180 179 178 176 176 178 177 175 173 173 171 168 165 163 162 163 163 161 160 162 165 167 170 172 172 175 177 178 179 183 186 186 183 177 171 167 163 159 155 149 146 143 134 127 131 135 129 123 113 93 66 43 30 18 15 15 12 12 15 16 17 19